When you browse on this site, cookies collect data to enhance your experience and personalize the content and advertising you see.
Visit our Privacy Policy to learn more. By continuing to use the site, you agree to this use of cookies and data.
  • en France
  • Liste des pays
  • À 7 jours
  • Température de l'eau
  • Carte météo
  • Widgets météo
  • user-avatar
    Se connecter

    Météo par heure à Montana

    Ce jour, 21 Août, Mercredi

    Heure Température Précipitation Vent Pression Humidité
    00:00 +23°C° 0 mm 1 m/s 738 mmHg 42%
    01:00 +23°C° 0 mm 1 m/s 738 mmHg 43%
    02:00 +22°C° 0 mm 1 m/s 738 mmHg 43%
    03:00 +22°C° 0 mm 1 m/s 737 mmHg 45%
    04:00 +21°C° 0 mm 1 m/s 737 mmHg 46%
    05:00 +21°C° 0 mm 1 m/s 737 mmHg 47%
    06:00 +23°C° 0 mm 1 m/s 738 mmHg 44%
    07:00 +24°C° 0 mm 1 m/s 738 mmHg 41%
    08:00 +26°C° 0 mm 1 m/s 738 mmHg 38%
    09:00 +28°C° 0 mm 1 m/s 738 mmHg 34%
    10:00 +30°C° 0 mm 2 m/s 738 mmHg 30%
    11:00 +32°C° 0 mm 2 m/s 738 mmHg 26%
    12:00 +34°C° 0 mm 3 m/s 737 mmHg 25%
    13:00 +35°C° 0 mm 3 m/s 737 mmHg 23%
    14:00 +35°C° 0 mm 3 m/s 737 mmHg 21%
    15:00 +35°C° 0 mm 3 m/s 736 mmHg 21%
    16:00 +35°C° 0 mm 4 m/s 736 mmHg 21%
    17:00 +35°C° 0 mm 4 m/s 736 mmHg 21%
    18:00 +31°C° 0 mm 3 m/s 736 mmHg 25%
    19:00 +29°C° 0 mm 2 m/s 736 mmHg 30%
    20:00 +26°C° 0 mm 1 m/s 736 mmHg 34%
    21:00 +26°C° 0 mm 1 m/s 736 mmHg 35%
    22:00 +25°C° 0 mm 1 m/s 737 mmHg 35%
    23:00 +25°C° 0 mm 1 m/s 737 mmHg 36%

    Demain, 22 Août, Jeudi

    Heure Température Précipitation Vent Pression Humidité
    00:00 +24°C° 0 mm 1 m/s 737 mmHg 37%
    01:00 +24°C° 0 mm 1 m/s 737 mmHg 38%
    02:00 +23°C° 0 mm 1 m/s 737 mmHg 38%
    03:00 +23°C° 0 mm 1 m/s 737 mmHg 40%
    04:00 +22°C° 0 mm 1 m/s 737 mmHg 41%
    05:00 +22°C° 0 mm 1 m/s 737 mmHg 42%
    06:00 +24°C° 0 mm 1 m/s 737 mmHg 39%
    07:00 +26°C° 0 mm 1 m/s 738 mmHg 36%
    08:00 +28°C° 0 mm 1 m/s 738 mmHg 33%
    09:00 +30°C° 0 mm 1 m/s 738 mmHg 31%
    10:00 +31°C° 0 mm 2 m/s 738 mmHg 29%
    11:00 +34°C° 0 mm 2 m/s 738 mmHg 26%
    12:00 +35°C° 0 mm 3 m/s 738 mmHg 25%
    13:00 +36°C° 0 mm 3 m/s 738 mmHg 25%
    14:00 +36°C° 0 mm 3 m/s 738 mmHg 24%
    15:00 +36°C° 0 mm 3 m/s 737 mmHg 25%
    16:00 +36°C° 0 mm 3 m/s 737 mmHg 25%
    17:00 +35°C° 0 mm 3 m/s 737 mmHg 26%
    18:00 +33°C° 0 mm 3 m/s 737 mmHg 30%
    19:00 +31°C° 0 mm 2 m/s 737 mmHg 34%
    20:00 +29°C° 0 mm 1 m/s 737 mmHg 38%
    21:00 +28°C° 0 mm 2 m/s 738 mmHg 40%
    22:00 +27°C° 0 mm 2 m/s 738 mmHg 42%
    23:00 +26°C° 0 mm 2 m/s 738 mmHg 44%

    Après-demain, 23 Août, Vendredi

    Heure Température Précipitation Vent Pression Humidité
    00:00 +25°C° 0 mm 1 m/s 738 mmHg 47%
    01:00 +24°C° 0 mm 1 m/s 738 mmHg 49%
    02:00 +24°C° 0 mm 1 m/s 738 mmHg 51%
    03:00 +23°C° 0 mm 1 m/s 738 mmHg 54%
    04:00 +22°C° 0 mm 1 m/s 738 mmHg 56%
    05:00 +22°C° 0 mm 1 m/s 738 mmHg 59%
    06:00 +23°C° 0 mm 1 m/s 739 mmHg 55%
    07:00 +25°C° 0 mm 1 m/s 739 mmHg 51%
    08:00 +27°C° 0 mm 1 m/s 739 mmHg 48%
    09:00 +29°C° 0 mm 1 m/s 739 mmHg 43%
    10:00 +31°C° 0 mm 2 m/s 739 mmHg 39%
    11:00 +33°C° 0 mm 3 m/s 739 mmHg 34%
    12:00 +34°C° 0 mm 3 m/s 739 mmHg 32%
    13:00 +35°C° 0 mm 4 m/s 738 mmHg 30%
    14:00 +36°C° 0 mm 4 m/s 738 mmHg 28%
    15:00 +36°C° 0 mm 4 m/s 738 mmHg 29%
    16:00 +35°C° 0 mm 4 m/s 737 mmHg 29%
    17:00 +35°C° 0 mm 4 m/s 737 mmHg 29%
    18:00 +33°C° 0 mm 4 m/s 737 mmHg 33%
    19:00 +29°C° 0 mm 3 m/s 737 mmHg 38%
    20:00 +27°C° 0 mm 2 m/s 737 mmHg 42%
    21:00 +26°C° 0 mm 2 m/s 738 mmHg 44%
    22:00 +26°C° 0 mm 2 m/s 738 mmHg 46%
    23:00 +25°C° 0 mm 1 m/s 738 mmHg 48%

    24 Août, Samedi

    Heure Température Précipitation Vent Pression Humidité
    00:00 +24°C° 0 mm 1 m/s 738 mmHg 49%
    01:00 +24°C° 0 mm 1 m/s 738 mmHg 50%
    02:00 +23°C° 0 mm 1 m/s 738 mmHg 51%
    03:00 +23°C° 0 mm 1 m/s 738 mmHg 53%
    04:00 +22°C° 0 mm 1 m/s 738 mmHg 56%
    05:00 +20°C° 0 mm 0 m/s 738 mmHg 58%
    06:00 +23°C° 0 mm 1 m/s 738 mmHg 55%
    07:00 +25°C° 0 mm 1 m/s 738 mmHg 51%
    08:00 +27°C° 0 mm 1 m/s 739 mmHg 48%
    09:00 +28°C° 0 mm 2 m/s 739 mmHg 44%
    10:00 +30°C° 0 mm 3 m/s 739 mmHg 40%
    11:00 +33°C° 0 mm 4 m/s 739 mmHg 37%
    12:00 +34°C° 0 mm 4 m/s 738 mmHg 34%
    13:00 +35°C° 0 mm 5 m/s 738 mmHg 31%
    14:00 +36°C° 0 mm 5 m/s 737 mmHg 29%
    15:00 +35°C° 0 mm 5 m/s 737 mmHg 30%
    16:00 +35°C° 0 mm 5 m/s 736 mmHg 31%
    17:00 +34°C° 0 mm 5 m/s 736 mmHg 32%
    18:00 +32°C° 0 mm 4 m/s 736 mmHg 37%
    19:00 +29°C° 0 mm 3 m/s 736 mmHg 42%
    20:00 +27°C° 0 mm 2 m/s 736 mmHg 47%
    21:00 +26°C° 0 mm 2 m/s 736 mmHg 49%
    22:00 +26°C° 0 mm 1 m/s 736 mmHg 51%
    23:00 +25°C° 0 mm 1 m/s 737 mmHg 53%

    25 Août, Dimanche

    Heure Température Précipitation Vent Pression Humidité
    00:00 +24°C° 0 mm 1 m/s 737 mmHg 54%
    01:00 +24°C° 0 mm 1 m/s 736 mmHg 56%
    02:00 +24°C° 0 mm 1 m/s 736 mmHg 57%
    03:00 +23°C° 0 mm 1 m/s 736 mmHg 59%
    04:00 +23°C° 0 mm 1 m/s 736 mmHg 61%
    05:00 +22°C° 0 mm 1 m/s 736 mmHg 62%
    06:00 +24°C° 0 mm 1 m/s 737 mmHg 58%
    07:00 +25°C° 0 mm 1 m/s 737 mmHg 53%
    08:00 +27°C° 0 mm 1 m/s 737 mmHg 49%
    09:00 +29°C° 0 mm 2 m/s 737 mmHg 44%
    10:00 +31°C° 0 mm 3 m/s 737 mmHg 39%
    11:00 +34°C° 0 mm 3 m/s 737 mmHg 35%
    12:00 +35°C° 0 mm 4 m/s 737 mmHg 32%
    13:00 +36°C° 0 mm 4 m/s 736 mmHg 29%
    14:00 +37°C° 0 mm 4 m/s 736 mmHg 26%
    15:00 +36°C° 0 mm 4 m/s 735 mmHg 26%
    16:00 +36°C° 0 mm 5 m/s 735 mmHg 26%
    17:00 +36°C° 0 mm 5 m/s 735 mmHg 26%
    18:00 +33°C° 0.1 mm 3 m/s 735 mmHg 33%
    19:00 +29°C° 0.1 mm 2 m/s 735 mmHg 39%
    20:00 +27°C° 0.1 mm 1 m/s 735 mmHg 46%
    21:00 +26°C° 0 mm 1 m/s 736 mmHg 48%
    22:00 +25°C° 0 mm 1 m/s 736 mmHg 50%
    23:00 +25°C° 0 mm 2 m/s 736 mmHg 53%

    26 Août, Lundi

    Heure Température Précipitation Vent Pression Humidité
    00:00 +24°C° 0.1 mm 2 m/s 736 mmHg 58%
    01:00 +24°C° 0.1 mm 2 m/s 736 mmHg 63%
    02:00 +23°C° 0.1 mm 2 m/s 736 mmHg 68%
    03:00 +23°C° 0.1 mm 1 m/s 736 mmHg 69%
    04:00 +22°C° 0.1 mm 1 m/s 736 mmHg 71%
    05:00 +22°C° 0.1 mm 1 m/s 736 mmHg 72%
    06:00 +23°C° 0 mm 1 m/s 736 mmHg 68%
    07:00 +25°C° 0 mm 1 m/s 737 mmHg 64%
    08:00 +26°C° 0 mm 1 m/s 737 mmHg 60%
    09:00 +28°C° 0 mm 1 m/s 737 mmHg 51%
    10:00 +30°C° 0 mm 2 m/s 737 mmHg 42%
    11:00 +33°C° 0 mm 3 m/s 737 mmHg 34%
    12:00 +34°C° 0 mm 4 m/s 737 mmHg 30%
    13:00 +35°C° 0 mm 4 m/s 736 mmHg 27%
    14:00 +36°C° 0 mm 4 m/s 736 mmHg 23%
    15:00 +36°C° 0 mm 4 m/s 736 mmHg 23%
    16:00 +35°C° 0 mm 5 m/s 736 mmHg 23%
    17:00 +35°C° 0 mm 5 m/s 735 mmHg 23%
    18:00 +33°C° 0 mm 4 m/s 735 mmHg 27%
    19:00 +29°C° 0 mm 3 m/s 736 mmHg 31%
    20:00 +27°C° 0 mm 2 m/s 736 mmHg 36%
    21:00 +26°C° 0 mm 2 m/s 736 mmHg 37%
    22:00 +26°C° 0 mm 1 m/s 736 mmHg 38%
    23:00 +25°C° 0 mm 1 m/s 737 mmHg 39%
    Voir plus